This is the latest recevied weather packets stored in our database for station/object NO3U. If no packets are shown the sender has not sent any weather packets the latest 10 day(s).
| Time | Temp. | Humidity | Pressure | Rain* | Wind** | Luminosity | Snow |
|---|---|---|---|---|---|---|---|
| 1777905906 | 17.22° C | 51% | 1010.8 hPa | 0 mm | - | 538 W/m² | - |
| 1777905603 | 17.22° C | 51% | 1010.8 hPa | 0 mm | - | 527 W/m² | - |
| 1777905300 | 17.22° C | 51% | 1010.6 hPa | 0 mm | - | 516 W/m² | - |
| 1777904992 | 17.22° C | 51% | 1010.8 hPa | 0 mm | - | 504 W/m² | - |
| 1777904690 | 17.22° C | 51% | 1010.5 hPa | 0 mm | - | 494 W/m² | - |
| 1777904386 | 16.67° C | 53% | 1010.6 hPa | 0 mm | - | 482 W/m² | - |
| 1777904083 | 16.11° C | 52% | 1010.6 hPa | 0 mm | - | 472 W/m² | - |
| 1777903780 | 16.11° C | 52% | 1010.9 hPa | 0 mm | - | 459 W/m² | - |
| 1777903476 | 15.56° C | 53% | 1010.7 hPa | 0 mm | - | 447 W/m² | - |
| 1777903173 | 16.11° C | 51% | 1011 hPa | 0 mm | - | 436 W/m² | - |
| 1777902869 | 16.11° C | 52% | 1010.9 hPa | 0 mm | - | 424 W/m² | - |
| 1777902566 | 16.11° C | 53% | 1011 hPa | 0 mm | - | 409 W/m² | - |
| 1777902263 | 15.56° C | 52% | 1011.1 hPa | 0 mm | - | 395 W/m² | - |
| 1777901961 | 15.56° C | 52% | 1011.3 hPa | 0 mm | - | 382 W/m² | - |
| 1777901659 | 15.56° C | 53% | 1011.2 hPa | 0 mm | - | 371 W/m² | - |
| 1777901356 | 15.56° C | 53% | 1011.3 hPa | 0 mm | - | 357 W/m² | - |
| 1777901054 | 15.56° C | 52% | 1011.2 hPa | 0 mm | - | 344 W/m² | - |
| 1777900751 | 15.56° C | 56% | 1011.2 hPa | 0 mm | - | 331 W/m² | - |
| 1777900448 | 15° C | 55% | 1011.2 hPa | 0 mm | - | 318 W/m² | - |
| 1777900145 | 15° C | 53% | 1011.3 hPa | 0 mm | - | 305 W/m² | - |
| 1777899841 | 15° C | 53% | 1011.2 hPa | 0 mm | - | 279 W/m² | - |
| 1777899538 | 15° C | 55% | 1011.2 hPa | 0 mm | - | 117 W/m² | - |
| 1777899236 | 14.44° C | 54% | 1011.2 hPa | 0 mm | - | 146 W/m² | - |
| 1777898933 | 14.44° C | 55% | 1011.2 hPa | 0 mm | - | 251 W/m² | - |
| 1777898630 | 14.44° C | 55% | 1011.3 hPa | 0 mm | - | 247 W/m² | - |
* Rain latest hour (hover to see other rain measurements)
** Current wind speed in m/s (hover to see current wind gust speed)